CZ-4B DEB, 48622

Orbit data source: Space-Track

CZ-4B DEB, 48622 is space debris in LEO originally from a launch on Wed, 19 May 2021 UTC launched from the Jiuquan Satellite Launch Center, China (JSC). Debris objects in space refer to the collection of defunct objects orbiting the Earth. Examples of debris include non-operational satellites, rocket bodies, and fragments generated from explosions, collisions, or faulty payload assembly.

Loading next visibility...
Identifier
48622, 2021-043B
Orbit
LEO
Country
Flag of CNCN / PRC
Related business
Manufacturer
SAST
Mission
Spacecraft
Bus & Motor
Unknown
Mass
Unknown
Launch date (UTC)
2021-05-19 (5 years ago)
Launch vehicle
Unknown
Launch site
Jiuquan Satellite Launch Center, China (JSC)
Object type
Payload
Rocket body
Debris
Shape & HBR
Unknown shape, 0.1 m
Radar Cross Section
Medium (>0.1 m² and <1 m²)

Expand to show TLE details & history
Last TLE update: 2 days ago

TLE from 2 days ago
0 CZ-4B DEB
1 48622U 21043B   26171.45344909  .00000032  00000-0  96390-4 0  9993
2 48622  65.8989 249.4802 0031135 215.8157 144.0825 13.87572634257734
Epoch: 2026-06-20T10:52Z
TLE epoch observation values (Epoch: 2026-06-20T10:52:58.001Z)
Latitude
-0.00004°
Longitude
177.57066°
Altitude
957.625 km
Speed
7.364 km/s
True Right ascension
16h 37m 55s
True Declination
0° 00' 00"
Sunlit
Object was in full shadow at epoch
Visualization orbit readout
Latitude
Unknown
Longitude
Unknown
Altitude
Unknown
Speed
Unknown
Apparent Right ascension
Unknown
Apparent Declination
Unknown
Sunlit
N/A
Visualization observer readout
Local Sidereal Time
21:23:26
Azimuth
Unknown
Elevation
Unknown
Doppler factor
Unknown
Orbital elements
Apogee altitude
958.422 km
Perigee altitude
912.879 km
Semi-major axis
7,313.787 km
Eccentricity
0.00311
Inclination
65.8989°
RAAN
249.4802°
Arg. of periapsis
215.8157°
True anomaly
144.29114°
Mean anomaly
144.0825°
Eccentric anomaly
144.18688°
Mean motion
3.47 °/min
Orbital period
103.75 mins
BSTAR
0.00009639
Loading maneuver chart data...
Computing Atmospheric mass density...
Loading historical data...
Loading historical data...
Loading historical data...
Loading historical data...
Loading historical data...
Loading historical data...
Loading historical data...
Other satellites on launch #43 in the year 2021 (2021-05-19 UTC)

Documentation

Showing up to 5 results
|